Weather History for KTZR - June, 2014

Change the Weather History Date:

Monday, June 23, 2014

  Actual Average Record
Temperature  
Mean Temperature 76 °F -  
Max Temperature 87 °F 81 °F 91 °F (2002)
Min Temperature 64 °F 62 °F 53 °F (2008)
Cooling Degree Days 10    
Growing Degree Days 26 (Base 50)    
Moisture  
Dew Point 67 °F    
Average Humidity 81    
Maximum Humidity 100    
Minimum Humidity 49    
Precipitation  
Precipitation 0.13 in - - ()
Sea Level Pressure  
Sea Level Pressure 29.95 in    
Wind  
Wind Speed 4 mph (South)    
Max Wind Speed 17 mph    
Max Gust Speed 24 mph    
Visibility 10 miles    
Events Thunderstorm    
Averages and records for this station are not official NWS values.
T = Trace of Precipitation, MM = Missing Value Source: NWS Daily Summary

Daily Weather History Graph

Daily Weather History Graph

Search for Another Location

Airport or City:

Trip Planner

Search our weather history database for the weather conditions in past years. The results will help you decide how hot, cold, wet, or windy it might be!

Date:

Astronomy

Jun. 23, 2014 Rise Set
Actual Time 6:04 AM EDT 9:04 PM EDT
Civil Twilight 5:31 AM EDT 9:37 PM EDT
Nautical Twilight 4:50 AM EDT 10:19 PM EDT
Astronomical Twilight 4:01 AM EDT 11:07 PM EDT
Moon 3:29 AM EDT (6/23) 5:45 PM EDT (6/23)
Length of Visible Light 16h 05m
Length of Day
15h 00m
Waning Crescent, 13% of the Moon is Illuminated
Jun 23
Waning Crescent
Jun 27
New
Jul 5
First Quarter
Jul 12
Full
Jul 18
Last Quarter

Hourly Weather History & Observations

Time (EDT) Temp. Heat Index Dew Point Humidity Pressure Visibility Wind Dir Wind Speed Gust Speed Precip Events Conditions
12:15 AM 72.0 °F - 67.1 °F 85% 29.95 in 10.0 mi SE 4.6 mph - N/A Thunderstorm Mostly Cloudy
12:35 AM 71.4 °F - 67.1 °F 86% 29.95 in 10.0 mi Calm Calm - N/A   Overcast
12:55 AM 70.5 °F - 67.3 °F 89% 29.96 in 10.0 mi WSW 4.6 mph - N/A   Overcast
1:15 AM 70.0 °F - 66.2 °F 88% 29.96 in 10.0 mi SSW 5.8 mph - N/A   Mostly Cloudy
1:35 AM 69.3 °F - 65.1 °F 87% 29.94 in 10.0 mi SE 4.6 mph - N/A   Scattered Clouds
1:55 AM 68.0 °F - 64.4 °F 88% 29.94 in 10.0 mi Calm Calm - N/A   Clear
2:15 AM 68.0 °F - 64.4 °F 88% 29.94 in 10.0 mi East 3.5 mph - N/A   Clear
2:35 AM 68.0 °F - 64.4 °F 88% 29.94 in 10.0 mi East 3.5 mph - N/A   Clear
2:55 AM 67.5 °F - 64.4 °F 90% 29.92 in 10.0 mi ESE 4.6 mph - N/A   Clear
3:15 AM 67.3 °F - 64.4 °F 90% 29.92 in 10.0 mi SE 4.6 mph - N/A   Clear
3:35 AM 67.1 °F - 64.4 °F 91% 29.92 in 10.0 mi ESE 3.5 mph - N/A   Scattered Clouds
3:50 AM 66.7 °F - 64.8 °F 93% 29.92 in 10.0 mi ESE 4.6 mph - N/A   Scattered Clouds
4:15 AM 66.9 °F - 64.8 °F 93% 29.92 in 10.0 mi SSE 3.5 mph - N/A   Scattered Clouds
4:35 AM 66.6 °F - 64.6 °F 93% 29.92 in 10.0 mi Calm Calm - N/A   Mostly Cloudy
4:55 AM 66.4 °F - 64.6 °F 94% 29.94 in 10.0 mi Calm Calm - N/A   Scattered Clouds
5:15 AM 66.4 °F - 64.6 °F 94% 29.95 in 10.0 mi Calm Calm - N/A   Clear
5:35 AM 64.9 °F - 63.5 °F 95% 29.95 in 10.0 mi Calm Calm - N/A   Clear
5:55 AM 64.6 °F - 64.0 °F 98% 29.96 in 7.0 mi Calm Calm - N/A   Clear
6:15 AM 64.4 °F - 64.4 °F 100% 29.95 in - Calm Calm - N/A   Unknown
6:35 AM 64.9 °F - 64.6 °F 99% 29.96 in - Calm Calm - N/A   Unknown
6:55 AM 66.2 °F - 65.3 °F 97% 29.96 in 10.0 mi Calm Calm - N/A   Clear
7:15 AM 67.5 °F - 66.2 °F 96% 29.96 in 10.0 mi Calm Calm - N/A   Clear
7:20 AM 68.0 °F - 66.2 °F 94% 29.96 in 10.0 mi SSW 3.5 mph - N/A   Clear
7:50 AM 69.8 °F - 66.2 °F 88% 29.97 in 10.0 mi South 3.5 mph - N/A   Clear
8:50 AM 73.4 °F - 69.8 °F 88% 29.99 in 10.0 mi South 6.9 mph - N/A   Clear
9:47 AM 77.0 °F - 69.8 °F 78% 29.98 in 10.0 mi South 8.1 mph - N/A   Clear
10:47 AM 80.6 °F 84.6 °F 71.6 °F 74% 29.96 in 10.0 mi SSW 6.9 mph - N/A   Clear
11:50 AM 84.2 °F 89.6 °F 71.6 °F 66% 29.97 in 10.0 mi South 10.4 mph - N/A   Clear
12:47 PM 84.2 °F 89.6 °F 71.6 °F 66% 29.97 in 10.0 mi SW 11.5 mph 17.3 mph N/A   Mostly Cloudy
1:47 PM 87.8 °F 92.6 °F 69.8 °F 55% 29.97 in 10.0 mi SW 11.5 mph 17.3 mph N/A   Scattered Clouds
2:47 PM 86.0 °F 89.4 °F 68.0 °F 55% 29.96 in 10.0 mi SSW 11.5 mph 18.4 mph N/A   Scattered Clouds
3:47 PM 87.8 °F 92.6 °F 69.8 °F 55% 29.94 in 10.0 mi South 17.3 mph 23.0 mph N/A   Scattered Clouds
4:50 PM 87.8 °F 91.4 °F 68.0 °F 52% 29.92 in 10.0 mi SSW 13.8 mph 20.7 mph N/A   Scattered Clouds
5:50 PM 87.8 °F 91.4 °F 68.0 °F 52% 29.91 in 10.0 mi South 8.1 mph - N/A   Scattered Clouds
6:52 PM 87.8 °F 90.4 °F 66.2 °F 49% 29.90 in 10.0 mi South 11.5 mph - N/A   Scattered Clouds
7:35 PM 85.1 °F 88.2 °F 68.0 °F 56% 29.91 in - South 9.2 mph - N/A   Clear
7:55 PM 84.2 °F 87.9 °F 68.7 °F 60% 29.92 in - South 5.8 mph - N/A   Clear
8:15 PM 83.3 °F 87.1 °F 69.4 °F 63% 29.92 in - South 5.8 mph - N/A   Clear
8:35 PM 82.6 °F 86.4 °F 69.6 °F 65% 29.92 in - South 5.8 mph - N/A   Scattered Clouds
8:55 PM 82.2 °F 85.8 °F 69.4 °F 65% 29.92 in - South 5.8 mph - N/A   Clear
9:15 PM 80.8 °F 84.1 °F 69.8 °F 69% 29.92 in - South 5.8 mph - N/A   Clear
9:35 PM 79.7 °F - 70.0 °F 72% 29.92 in - South 4.6 mph - N/A   Clear
9:55 PM 79.5 °F - 70.0 °F 72% 29.94 in - South 4.6 mph - N/A   Clear
10:15 PM 75.4 °F - 67.3 °F 76% 29.97 in - West 11.5 mph 24.2 mph N/A   Mostly Cloudy
10:35 PM 72.5 °F - 68.4 °F 87% 30.00 in - WSW 10.4 mph - 0.10 in Thunderstorm Thunderstorm
10:55 PM 71.2 °F - 68.9 °F 92% 29.96 in - NW 6.9 mph - 0.13 in Thunderstorm Thunderstorm
11:15 PM 70.9 °F - 68.9 °F 93% 29.96 in - Calm Calm - N/A   Unknown
11:35 PM 71.1 °F - 69.3 °F 94% 29.97 in - Calm Calm - N/A   Unknown
11:55 PM 70.7 °F - 69.8 °F 97% 29.98 in - East 5.8 mph - N/A   Unknown